Location: Newark
(21.1200°N, 73.4000°E)
Time: 18:41:52
(UTC+00:00)

Courier 1B Rocket - Pass Details

Date: 20 January 2020
Orbit: 920 x 1202 km, 28.2° (Epoch: 25 February)

Event Time Altitude Azimuth Distance (km) Brightness Sun altitude
Rises 06:42:41 0° 236° (SW) 3,912 8.4 47.8°
Reaches altitude 10° 06:45:35 10° 232° (SW) 2,913 7.9 47.9°
Maximum altitude 06:52:31 57° 155° (SSE) 1,186 7.6 48.2°
Drops below altitude 10° 06:58:58 10° 78° (ENE) 2,716 7.4 48.4°
Sets 07:01:34 0° 74° (ENE) 3,631 7.9 48.5°
